Printer-friendly version

IAU Minor Planet Center

Minor Planet Center

MPEC 2007-C65 : 2007 CB27

The following Minor Planet Electronic Circular may be linked-to from your own Web pages, but must not otherwise be redistributed electronically.


Read MPEC 2007-C64 Read MPEC 2007-C66


M.P.E.C. 2007-C65                                Issued 2007 Feb. 14, 16:58 UT

     The Minor Planet Electronic Circulars contain information on unusual
         minor planets and routine data on comets.  They are published
   on behalf of Commission 20 of the International Astronomical Union by the
          Minor Planet Center, Smithsonian Astrophysical Observatory,
                          Cambridge, MA 02138, U.S.A.

             Prepared using the Tamkin Foundation Computer Network

                              MPC@CFA.HARVARD.EDU
          URL http://cfa-www.harvard.edu/iau/mpc.html  ISSN 1523-6714

                                   2007 CB27

Observations:
     K07C27B* C2007 02 13.33067 11 33 58.75 +11 25 50.1          18.3   EC065704
     K07C27B  C2007 02 13.34260 11 33 51.35 +11 23 01.3          18.2   EC065704
     K07C27B  C2007 02 13.35452 11 33 43.80 +11 20 12.6          18.4   EC065704
     K07C27B  C2007 02 13.36649 11 33 36.29 +11 17 21.7          18.3   EC065704
     K07C27B  C2007 02 13.37876 11 33 28.48 +11 14 26.7          18.6   EC065704
     K07C27B  C2007 02 14.03168 11 27 01.66 +08 36 25.2                 EC065595
     K07C27B  C2007 02 14.03707 11 26 58.20 +08 35 05.1                 EC065595
     K07C27B  C2007 02 14.07519 11 26 33.89 +08 25 41.8          18.6 R EC065473
     K07C27B  C2007 02 14.08102 11 26 30.28 +08 24 14.8          18.5 R EC065473
     K07C27B  C2007 02 14.08708 11 26 26.46 +08 22 47.0          18.5 R EC065473
     K07C27B  C2007 02 14.09366 11 26 22.26 +08 21 10.2          18.5 R EC065473
     K07C27B  C2007 02 14.09600 11 26 20.66 +08 20 35.4          18.4 V EC065595
     K07C27B  C2007 02 14.09977 11 26 18.32 +08 19 40.4          18.4 V EC065595
     K07C27B  C2007 02 14.10354 11 26 15.93 +08 18 44.4          18.5 V EC065595

Observer details:
473 Remanzacco.  Observers L. Donato, V. Gonano, E. Guido, V. Santini,
    G. Sostero.  0.45-m f/4.4 Newtonian reflector + CCD.
595 Farra d'Isonzo.  Observers L. Bittesini, G. Lombardi, E. Pettarin,
    F. Piani.  Measurers G. Lombardi, E. Pettarin.  0.40-m f/4.5 reflector
    + CCD.
704 Lincoln Laboratory ETS, New Mexico.  Observers M. Blythe, F. Shelly, M.
    Bezpalko, R. Huber, L. Manguso, S. Adams, D. Torres, T. Brothers, S.
    Partridge.  Measurers J. Stuart, R. Sayer, J. B. Evans, H. Viggh.  1.0-m
    f/2.15 reflector + CCD.

Orbital elements:
2007 CB27                                                Earth MOID = 0.0638 AU
Epoch 2007 Apr. 10.0 TT = JDT 2454200.5                 MPC
M  45.39695              (2000.0)            P               Q
n   0.82716056     Peri.  179.17489     -0.83357214     -0.52108881
a   1.1239392      Node   327.24476     +0.50486573     -0.58390791
e   0.0645383      Incl.   19.81055     +0.22420546     -0.62250944
P   1.19           H   23.1           G   0.15           U   8
Residuals in seconds of arc
070213 704  0.9-  0.1-    070214 595  0.4+  0.8+    070214 473  0.5+  0.5+
070213 704  0.6+  0.2+    070214 595  0.0   0.0     070214 595  0.8-  0.0
070213 704  0.0   0.6+    070214 473  1.1-  0.9-    070214 595  0.0   0.8+
070213 704  0.6+  0.1-    070214 473  0.3+  1.8-    070214 595  0.0   0.6+
070213 704  0.4-  0.5-    070214 473  0.8+  0.0

Ephemeris:
2007 CB27                a,e,i = 1.12, 0.06, 20                  q = 1.0514
Date    TT    R. A. (2000) Decl.     Delta      r     Elong.  Phase     V
2007 02 09    12 12.85   +26 05.0    0.0830   1.052   140.1    37.0    19.3
2007 02 14    11 27.35   +08 45.6    0.0699   1.051   155.3    23.1    18.5
2007 02 19    10 35.07   -12 29.5    0.0692   1.052   155.1    23.4    18.5
2007 02 24    09 43.32   -29 43.9    0.0811   1.052   139.2    37.9    19.3
2007 03 01    08 58.97   -40 05.4    0.101    1.053   126.1    49.5    20.1
2007 03 06    08 24.65   -45 45.0    0.125    1.055   117.3    56.7    20.7
2007 03 11    07 59.59   -48 52.1    0.150    1.057   111.2    61.2    21.3
2007 03 16    07 41.98   -50 39.1    0.175    1.059   106.9    64.0    21.7
2007 03 21    07 30.08   -51 43.4    0.200    1.062   103.7    65.7    22.1

Kyle E. Smalley              (C) Copyright 2007 MPC           M.P.E.C. 2007-C65

Read MPEC 2007-C64 Read MPEC 2007-C66


Our Web policy. Index to the CBAT/MPC/ICQ pages.


Valid HTML 4.01!